Location: Newark
(12.4436°N, 0.6167°W)
Time: 06:51:25
(UTC+00:00)

Vanguard 1 - Pass Details

Date: 19 December 2019
Orbit: 651 x 3833 km, 34.2° (Epoch: 25 January)

Event Time Altitude Azimuth Distance (km) Brightness Sun altitude
Rises 03:36:03 0° 280° (W) 7,060 - -37.6°
Reaches altitude 10° 03:41:02 10° 288° (WNW) 6,371 - -36.4°
Exits shadow 03:54:54 36° 325° (NW) 5,051 13.2 -33.3°
Maximum altitude 04:01:22 40° 353° (N) 4,860 13.2 -31.8°
Drops below altitude 10° 04:21:12 10° 58° (ENE) 6,205 14.6 -27.2°
Sets 04:26:01 0° 66° (ENE) 6,868 15.0 -26.1°
